Location: Twillingate Astronomical Observatory
(49.6173°N, 54.7580°W)
Time: 09:33:47
(UTC-02:-30)

Amateur Radio Satellites - All Passes

Search period start: 29 April 2016 09:03
Search period end: 30 April 2016 09:03
Location: Twillingate Astronomical Observatory, 49.6173°N, 54.7580°W

Satellite Date Start Highest point End Downlink Frequencies (MHz)
Time Altitude Azimuth
PRISM 29 Apr 09:03:53 09:07:41 38° 262° (W) 09:11:33 437.425
NOAA 18 29 Apr 09:06:13 09:10:26 23° 303° (WNW) 09:14:36 137.9125
CINEMA 3 29 Apr 09:07:51 09:12:32 50° 98° (E) 09:16:58 145.822/145.860
Cosmos 2491 29 Apr 09:08:44 09:17:08 47° 291° (WNW) 09:25:38 435.465 / 435.565
ISS 29 Apr 09:11:26 09:13:38 17° 140° (SE) 09:15:50 145.825
GOMX 1 29 Apr 09:13:20 09:18:20 36° 295° (WNW) 09:23:14 467.674
CUTE 1.7 + AOD 2 29 Apr 09:15:03 09:19:12 55° 100° (E) 09:23:21 437.475
BRITE-PL 29 Apr 09:18:20 09:22:32 22° 302° (WNW) 09:26:46 437.365/2234.400
AUBIESAT-1 29 Apr 09:25:40 09:29:28 35° 300° (WNW) 09:33:00 437.475
SO-50 29 Apr 09:25:50 09:30:47 90° 152° (SSE) 09:35:43 436.795
CUTE-I 29 Apr 09:29:48 09:33:20 18° 305° (NW) 09:36:53 437.470
ZACube-1 29 Apr 09:30:17 09:32:40 15° 88° (E) 09:35:01 437.345
DOVE 4 29 Apr 09:30:43 09:35:42 43° 293° (WNW) 09:40:28 437.250
HO-68 29 Apr 09:49:00 09:56:13 87° 107° (ESE) 10:03:23 435.675
SEEDS 29 Apr 09:50:01 09:54:14 87° 285° (WNW) 09:58:25 437.485
UNISAT 6 29 Apr 09:50:09 09:54:24 36° 67° (ENE) 09:58:37 437.425
QB50P1 29 Apr 09:55:25 09:55:59 10° 54° (NE) 09:56:34 145.935-145.965
COMPASS 1 29 Apr 10:01:12 10:05:23 89° 267° (W) 10:09:32 437.405
TIGRISAT 29 Apr 10:08:52 10:13:22 50° 70° (ENE) 10:17:50 435.000
GONETS M04 29 Apr 10:12:40 10:18:17 18° 49° (NE) 10:23:51
CANX-2 29 Apr 10:17:31 10:21:17 32° 293° (WNW) 10:25:03 2200.000
Oscar 11 29 Apr 10:19:38 10:23:51 50° 100° (E) 10:28:01 145.826/435.025
CUBEBUG 2 29 Apr 10:23:28 10:27:57 87° 285° (WNW) 10:32:14 437.445
UWE-3 29 Apr 10:24:54 10:29:16 71° 102° (ESE) 10:33:29 435.000/436.395/437.385
FUNcube-1 29 Apr 10:25:15 10:29:23 46° 99° (E) 10:33:24 145.935
NANOSAT C BR1 29 Apr 10:29:43 10:32:50 20° 61° (ENE) 10:35:56 145.865
ANTELSAT 29 Apr 10:32:02 10:36:43 84° 75° (ENE) 10:41:21 437.575/2403.000
AAUSAT CUBESAT 2 29 Apr 10:36:23 10:40:23 48° 289° (WNW) 10:44:21 437.432
RS-15 29 Apr 10:41:06 10:47:32 16° 267° (W) 10:53:58 29.354- 29.394
Cosmos 2504 29 Apr 10:41:32 10:45:44 16° 285° (WNW) 10:50:06 435.465 / 435.565
CINEMA 3 29 Apr 10:45:30 10:49:22 24° 298° (WNW) 10:53:05 145.822/145.860
ISS 29 Apr 10:46:25 10:49:40 72° 159° (SSE) 10:52:56 145.825
BUGSAT 1 29 Apr 10:48:44 10:51:18 16° 59° (ENE) 10:53:54 437.445
DELFI C3 29 Apr 10:48:51 10:52:44 51° 99° (E) 10:56:38 145.870
CUTE 1.7 + AOD 2 29 Apr 10:51:45 10:54:42 19° 299° (WNW) 10:57:38 437.475
ZACube-1 29 Apr 11:05:12 11:09:28 66° 288° (WNW) 11:13:37 437.345
SO-50 29 Apr 11:07:50 11:11:55 25° 331° (NNW) 11:15:57 436.795
HUMSAT D 29 Apr 11:08:50 11:12:42 38° 98° (E) 11:16:31 437.325/437.525
Cosmos 2499 29 Apr 11:12:14 11:17:17 19° 56° (NE) 11:22:31 435.465 / 435.565
Cosmos 2491 29 Apr 11:13:12 11:16:54 13° 319° (NW) 11:20:36 435.465 / 435.565
AIST 1 29 Apr 11:14:23 11:17:38 20° 66° (ENE) 11:20:52
QB50P2 29 Apr 11:17:15 11:21:28 57° 71° (ENE) 11:25:42 145.880/145.840
POLYITAN 1 29 Apr 11:19:20 11:23:34 58° 71° (ENE) 11:27:49 437.675
DUCHIFAT 1 29 Apr 11:22:47 11:26:58 57° 72° (ENE) 11:31:10 145.980
POPSAT HIP 1 29 Apr 11:23:05 11:27:19 62° 72° (ENE) 11:31:35 437.405
QB50P1 29 Apr 11:26:42 11:30:58 68° 73° (ENE) 11:35:15 145.935-145.965
UNISAT 6 29 Apr 11:26:59 11:31:09 31° 265° (W) 11:35:16 437.425
SEEDS 29 Apr 11:27:40 11:29:17 12° 303° (WNW) 11:30:54 437.485
50 SAT 29 Apr 11:37:01 11:38:33 12° 89° (E) 11:40:04 437.505
HO-68 29 Apr 11:37:35 11:43:10 25° 309° (NW) 11:48:45 435.675
COMPASS 1 29 Apr 11:38:37 11:40:19 12° 303° (WNW) 11:42:00 437.405
AISAT 29 Apr 11:43:21 11:46:10 16° 89° (E) 11:48:57 437.250
ESTCUBE 1 29 Apr 11:44:35 11:48:04 21° 92° (E) 11:51:32 437.505/2401.250
TIGRISAT 29 Apr 11:46:38 11:50:19 23° 268° (W) 11:53:57 435.000
JAS-2 29 Apr 11:48:25 11:53:16 25° 54° (NE) 11:58:37 435.910
Oscar 11 29 Apr 11:56:26 11:59:41 21° 298° (WNW) 12:02:55 145.826/435.025
CUBEBUG 2 29 Apr 12:01:50 12:03:51 13° 304° (NW) 12:05:50 437.445
FUNcube-1 29 Apr 12:02:06 12:05:21 21° 298° (WNW) 12:08:33 145.935
UWE-3 29 Apr 12:02:33 12:05:12 16° 302° (WNW) 12:07:48 435.000/436.395/437.385
NANOSAT C BR1 29 Apr 12:04:02 12:08:13 54° 259° (W) 12:12:27 145.865
Oscar 19 29 Apr 12:08:26 12:12:05 20° 57° (ENE) 12:15:45 437.125/150
GONETS M04 29 Apr 12:08:28 12:17:15 65° 75° (ENE) 12:25:53
ANTELSAT 29 Apr 12:11:44 12:14:01 13° 273° (W) 12:16:18 437.575/2403.000
SPROUT 29 Apr 12:15:40 12:17:35 13° 87° (E) 12:19:31 437.525
AO-7 29 Apr 12:21:00 12:23:36 12° 25° (NNE) 12:26:12 29.400- 29.500
BUGSAT 1 29 Apr 12:21:58 12:26:11 71° 257° (WSW) 12:30:28 437.445
ISS 29 Apr 12:23:00 12:26:14 58° 358° (N) 12:29:29 145.825
DELFI C3 29 Apr 12:24:33 12:27:18 18° 298° (WNW) 12:30:03 145.870
CUBEBUG 1 29 Apr 12:30:49 12:35:04 42° 98° (E) 12:39:17 437.445
HUMSAT D 29 Apr 12:44:51 12:48:10 24° 296° (WNW) 12:51:28 437.325/437.525
VELOX 1 29 Apr 12:47:05 12:51:32 60° 101° (ESE) 12:55:57 145.980
AIST 1 29 Apr 12:51:16 12:55:34 52° 265° (W) 12:59:51
SO-50 29 Apr 12:51:29 12:54:03 14° 355° (N) 12:56:36 436.795
QB50P2 29 Apr 12:54:46 12:57:38 17° 270° (W) 13:00:32 145.880/145.840
POLYITAN 1 29 Apr 12:56:54 12:59:45 17° 270° (W) 13:02:37 437.675
DX 1 29 Apr 12:58:14 13:02:38 69° 103° (ESE) 13:07:00 434.975-435.025
DUCHIFAT 1 29 Apr 13:00:10 13:03:02 17° 270° (W) 13:05:55 145.980
POPSAT HIP 1 29 Apr 13:00:49 13:03:31 16° 270° (W) 13:06:14 437.405
PHONESAT 2.4 29 Apr 13:02:09 13:03:22 12° 164° (SSE) 13:04:35 2401.200-2431.200
Cosmos 2499 29 Apr 13:04:13 13:11:44 76° 79° (ENE) 13:19:50 435.465 / 435.565
QB50P1 29 Apr 13:04:47 13:07:13 15° 271° (W) 13:09:39 145.935-145.965
TISAT 1 29 Apr 13:04:58 13:06:54 13° 88° (E) 13:08:49 437.305
AO-85 29 Apr 13:08:33 13:11:45 16° 108° (ESE) 13:14:54 145.980
Gurwin Techsat 1B 29 Apr 13:08:42 13:13:07 27° 60° (ENE) 13:17:32 435.225
50 SAT 29 Apr 13:09:09 13:12:46 61° 287° (WNW) 13:16:22 437.505
UKube-1 29 Apr 13:12:17 13:16:40 79° 104° (ESE) 13:21:01 .
AISAT 29 Apr 13:18:38 13:23:07 67° 288° (WNW) 13:27:33 437.250
ITAMSAT 1 29 Apr 13:18:38 13:21:49 17° 54° (NE) 13:25:00 435.822/435.867
ESTCUBE 1 29 Apr 13:20:46 13:25:10 50° 290° (WNW) 13:29:32 437.505/2401.250
JAS-2 29 Apr 13:31:41 13:37:36 76° 256° (WSW) 13:44:24 435.910
Oscar 19 29 Apr 13:45:40 13:50:50 77° 256° (WSW) 13:56:04 437.125/150
SPROUT 29 Apr 13:49:48 13:54:08 79° 287° (WNW) 13:58:26 437.525
ISS 29 Apr 13:59:35 14:02:52 88° 9° (N) 14:06:09 145.825
GONETS M04 29 Apr 14:05:57 14:13:32 34° 278° (W) 14:21:04
AO-7 29 Apr 14:06:48 14:13:51 33° 50° (NE) 14:20:55 29.400- 29.500
CUBEBUG 1 29 Apr 14:07:30 14:11:11 26° 297° (WNW) 14:14:51 437.445
ITUPSAT 1 29 Apr 14:12:54 14:15:17 14° 87° (E) 14:17:40 437.325
SWISSCUBE 29 Apr 14:23:45 14:27:09 19° 91° (E) 14:30:32 437.505
VELOX 1 29 Apr 14:24:24 14:27:37 20° 300° (WNW) 14:30:49 145.980
SO-50 29 Apr 14:33:05 14:36:25 18° 20° (NNE) 14:39:41 436.795
DX 1 29 Apr 14:35:29 14:38:21 17° 302° (WNW) 14:41:12 434.975-435.025
PHONESAT 2.4 29 Apr 14:37:27 14:39:31 16° 181° (S) 14:41:34 2401.200-2431.200
TISAT 1 29 Apr 14:38:51 14:43:07 77° 286° (WNW) 14:47:19 437.305
AO-85 29 Apr 14:46:03 14:51:31 79° 127° (SE) 14:56:54 145.980
Gurwin Techsat 1B 29 Apr 14:47:35 14:52:47 54° 260° (W) 14:58:01 435.225
UKube-1 29 Apr 14:49:40 14:52:10 15° 303° (WNW) 14:54:38 .
ITAMSAT 1 29 Apr 14:55:24 15:00:35 87° 73° (ENE) 15:05:49 435.822/435.867
BEESAT 29 Apr 14:56:50 15:01:11 34° 96° (E) 15:05:29 436.000
AISAT 29 Apr 14:57:41 14:58:45 11° 307° (NW) 14:59:49 437.250
Cosmos 2499 29 Apr 14:58:16 15:04:11 26° 279° (W) 15:10:26 435.465 / 435.565
CUSAT 1 29 Apr 15:05:30 15:06:38 11° 78° (ENE) 15:07:51 437.405
JAS-2 29 Apr 15:20:58 15:24:05 14° 280° (W) 15:27:23 435.910
HORYU 2 29 Apr 15:23:11 15:25:50 16° 57° (ENE) 15:28:28 437.375
SPROUT 29 Apr 15:27:50 15:29:22 12° 305° (NW) 15:30:53 437.525
Oscar 19 29 Apr 15:29:11 15:31:04 12° 275° (W) 15:32:57 437.125/150
ISS 29 Apr 15:36:20 15:39:04 24° 216° (SW) 15:41:47 145.825
ITUPSAT 1 29 Apr 15:48:59 15:53:47 86° 289° (WNW) 15:58:34 437.325
AO-7 29 Apr 15:57:41 16:05:58 78° 252° (WSW) 16:14:19 29.400- 29.500
SWISSCUBE 29 Apr 16:00:40 16:05:22 61° 289° (WNW) 16:10:03 437.505
MOZHAYETS 4 29 Apr 16:03:33 16:06:21 16° 89° (E) 16:09:07
SO-50 29 Apr 16:13:18 16:18:00 50° 43° (NE) 16:22:32 436.795
PHONESAT 2.4 29 Apr 16:14:53 16:15:38 11° 198° (SSW) 16:16:23 2401.200-2431.200
TISAT 1 29 Apr 16:16:44 16:18:01 11° 305° (NW) 16:19:19 437.305
O/OREOS (USA 219) 29 Apr 16:21:14 16:25:49 70° 113° (ESE) 16:30:24 437.305
AO-85 29 Apr 16:27:48 16:32:35 30° 327° (NNW) 16:37:13 145.980
KKS-1 29 Apr 16:27:58 16:32:10 37° 98° (E) 16:36:18 437.445
BEESAT 29 Apr 16:34:40 16:38:58 35° 295° (WNW) 16:43:16 436.000
ITAMSAT 1 29 Apr 16:37:53 16:40:47 15° 273° (W) 16:43:41 435.822/435.867
Cubesat XI-IV 29 Apr 16:41:20 16:44:15 15° 52° (NE) 16:47:10 437.490
CUSAT 1 29 Apr 16:44:24 16:47:45 60° 286° (WNW) 16:52:10 437.405
M-CUBED/EXP-1 PRIME 29 Apr 16:47:46 16:49:08 11° 46° (NE) 16:50:31 437.505
NOAA 15 29 Apr 16:51:52 16:56:01 24° 59° (ENE) 17:00:12 137.62
DANDE 29 Apr 16:52:34 16:55:21 59° 98° (E) 16:58:47 436.750
STARS 29 Apr 16:55:13 16:59:22 38° 98° (E) 17:03:28 437.465
HORYU 2 29 Apr 16:57:20 17:01:50 80° 257° (WSW) 17:06:20 437.375
AUBIESAT-1 29 Apr 17:08:47 17:11:05 14° 49° (NE) 17:13:22 437.475
PCSat 29 Apr 17:09:37 17:14:54 56° 119° (ESE) 17:20:14 145.827
GOMX 1 29 Apr 17:12:49 17:14:56 13° 51° (NE) 17:17:07 467.674
NOAA 18 29 Apr 17:15:49 17:20:45 35° 62° (ENE) 17:25:42 137.9125
Cosmos 2491 29 Apr 17:16:24 17:24:10 32° 62° (ENE) 17:31:49 435.465 / 435.565
BRITE-PL 29 Apr 17:17:16 17:20:58 22° 58° (ENE) 17:24:53 437.365/2234.400
LilacSat-2 29 Apr 17:23:42 17:26:23 18° 62° (ENE) 17:29:05 437.200
ITUPSAT 1 29 Apr 17:28:21 17:30:56 15° 305° (NW) 17:33:30 437.325
CUTE-I 29 Apr 17:35:38 17:40:27 36° 64° (ENE) 17:45:16 437.470
CUBESAT XI-V 29 Apr 17:37:46 17:40:57 18° 89° (E) 17:44:06 437.345
MOZHAYETS 4 29 Apr 17:39:28 17:44:01 69° 288° (WNW) 17:48:33
YUBILEINY 29 Apr 17:41:03 17:44:41 13° 68° (ENE) 17:48:19 435.215
SWISSCUBE 29 Apr 17:41:05 17:42:15 11° 309° (NW) 17:43:25 437.505
SO-50 29 Apr 17:54:11 17:58:18 30° 243° (WSW) 18:02:18 436.795
AO-7 29 Apr 17:54:37 18:00:07 19° 273° (W) 18:05:40 29.400- 29.500
O/OREOS (USA 219) 29 Apr 18:02:15 18:05:43 20° 314° (NW) 18:09:11 437.305
KKS-1 29 Apr 18:04:45 18:08:38 29° 296° (WNW) 18:12:28 437.445
AO-85 29 Apr 18:11:32 18:14:42 16° 351° (N) 18:17:47 145.980
Cubesat XI-IV 29 Apr 18:18:10 18:23:29 75° 72° (ENE) 18:28:50 437.490
M-CUBED/EXP-1 PRIME 29 Apr 18:18:10 18:22:47 55° 64° (ENE) 18:27:21 437.505
NOAA 15 29 Apr 18:30:12 18:35:24 62° 258° (WSW) 18:40:41 137.62
STARS 29 Apr 18:31:50 18:35:37 28° 296° (WNW) 18:39:22 437.465
HO-68 29 Apr 18:36:09 18:41:50 27° 52° (NE) 18:47:32 435.675
HORYU 2 29 Apr 18:38:35 18:39:08 10° 274° (W) 18:39:42 437.375
CINEMA 3 29 Apr 18:39:01 18:41:28 14° 54° (NE) 18:43:56 145.822/145.860
AUBIESAT-1 29 Apr 18:40:11 18:44:51 72° 67° (ENE) 18:49:26 437.475
GOMX 1 29 Apr 18:47:00 18:51:56 63° 71° (ENE) 18:57:13 467.674
PCSat 29 Apr 18:53:40 18:58:36 34° 320° (NW) 19:03:33 145.827
BRITE-PL 29 Apr 18:54:12 18:58:56 64° 259° (W) 19:04:07 437.365/2234.400
NOAA 18 29 Apr 18:56:05 19:01:20 43° 261° (W) 19:06:35 137.9125
LilacSat-2 29 Apr 18:56:36 19:00:23 49° 261° (W) 19:04:11 437.200
BEESAT 3 29 Apr 19:00:14 19:01:26 11° 110° (ESE) 19:02:39 437.485
DOVE 4 29 Apr 19:02:09 19:07:01 48° 69° (ENE) 19:12:07 437.250
STRAND 1 29 Apr 19:02:12 19:04:19 12° 86° (E) 19:06:26 437.568
SEEDS 29 Apr 19:12:17 19:14:39 15° 59° (ENE) 19:17:02 437.485
Cosmos 2491 29 Apr 19:13:03 19:21:52 73° 265° (W) 19:30:34 435.465 / 435.565
CUBESAT XI-V 29 Apr 19:14:07 19:18:46 65° 288° (WNW) 19:23:25 437.345
CUTE-I 29 Apr 19:15:30 19:20:28 39° 263° (W) 19:25:28 437.470
MOZHAYETS 4 29 Apr 19:18:59 19:20:22 11° 306° (NW) 19:21:44
COMPASS 1 29 Apr 19:22:50 19:25:00 14° 58° (ENE) 19:27:11 437.405
YUBILEINY 29 Apr 19:31:01 19:39:31 60° 91° (E) 19:48:01 435.215
CANX-2 29 Apr 19:38:29 19:42:21 36° 68° (ENE) 19:46:13 2200.000
Cosmos 2504 29 Apr 19:40:39 19:44:47 16° 76° (ENE) 19:48:53 435.465 / 435.565
CUBEBUG 2 29 Apr 19:50:14 19:53:38 20° 60° (ENE) 19:56:59 437.445
UWE-3 29 Apr 19:51:34 19:54:13 15° 58° (ENE) 19:56:50 435.000/436.395/437.385
FUNcube-1 29 Apr 19:52:48 19:53:25 10° 54° (NE) 19:54:01 145.935
AO-85 29 Apr 19:53:45 19:57:11 18° 16° (NNE) 20:00:29 145.980
M-CUBED/EXP-1 PRIME 29 Apr 19:53:49 19:57:34 23° 262° (W) 20:01:19 437.505
AAUSAT CUBESAT 2 29 Apr 19:56:05 19:59:20 23° 64° (ENE) 20:02:36 437.432
Cubesat XI-IV 29 Apr 20:00:31 20:04:09 18° 271° (W) 20:07:48 437.490
CUTE 1.7 + AOD 2 29 Apr 20:11:37 20:15:49 68° 73° (ENE) 20:20:01 437.475
CINEMA 3 29 Apr 20:12:47 20:17:46 74° 74° (ENE) 20:22:49 145.822/145.860
AUBIESAT-1 29 Apr 20:16:42 20:19:45 17° 265° (W) 20:22:47 437.475
HO-68 29 Apr 20:21:40 20:28:50 84° 250° (WSW) 20:36:04 435.675
GOMX 1 29 Apr 20:26:45 20:30:31 21° 272° (W) 20:34:28 467.674
ZACube-1 29 Apr 20:29:41 20:33:11 22° 62° (ENE) 20:36:39 437.345
BEESAT 3 29 Apr 20:34:32 20:38:29 86° 125° (SE) 20:42:28 437.485
BEESAT 2 29 Apr 20:34:43 20:38:36 55° 124° (SE) 20:42:32 435.950
STRAND 1 29 Apr 20:39:11 20:44:19 81° 105° (ESE) 20:49:27 437.568
DOVE 4 29 Apr 20:40:36 20:44:56 28° 268° (W) 20:49:27 437.250
PCSat 29 Apr 20:40:45 20:43:42 14° 345° (NNW) 20:46:38 145.827
PRISM 29 Apr 20:41:19 20:44:30 21° 93° (E) 20:47:40 437.425
SEEDS 29 Apr 20:45:41 20:49:51 73° 258° (WSW) 20:54:02 437.485
RS-15 29 Apr 20:48:41 20:54:46 16° 93° (E) 21:00:58 29.354- 29.394
CUBESAT XI-V 29 Apr 20:54:02 20:55:16 11° 307° (NW) 20:56:30 437.345
COMPASS 1 29 Apr 20:55:54 21:00:02 77° 257° (WSW) 21:04:11 437.405
Cosmos 2491 29 Apr 21:11:51 21:17:04 18° 288° (WNW) 21:22:16 435.465 / 435.565
CANX-2 29 Apr 21:14:45 21:18:18 26° 266° (W) 21:21:53 2200.000
Oscar 11 29 Apr 21:18:15 21:22:32 66° 73° (ENE) 21:26:50 145.826/435.025
FUNcube-1 29 Apr 21:24:21 21:28:50 64° 73° (ENE) 21:33:16 145.935
CUBEBUG 2 29 Apr 21:25:06 21:29:49 65° 258° (WSW) 21:34:30 437.445
UWE-3 29 Apr 21:25:25 21:30:05 86° 256° (WSW) 21:34:41 435.000/436.395/437.385
YUBILEINY 29 Apr 21:28:47 21:36:46 39° 294° (WNW) 21:44:49 435.215
Cosmos 2504 29 Apr 21:29:40 21:36:58 81° 98° (E) 21:44:09 435.465 / 435.565
AAUSAT CUBESAT 2 29 Apr 21:30:43 21:34:38 41° 262° (W) 21:38:33 437.432
AO-85 29 Apr 21:34:11 21:39:00 43° 40° (NE) 21:43:24 145.980
AIST 2 29 Apr 21:37:18 21:40:31 22° 115° (ESE) 21:43:44 435.215
DELFI C3 29 Apr 21:38:52 21:42:42 53° 72° (ENE) 21:46:35 145.870
CUTE 1.7 + AOD 2 29 Apr 21:49:51 21:52:08 14° 272° (W) 21:54:26 437.475
CINEMA 3 29 Apr 21:52:07 21:55:26 18° 272° (W) 21:58:47 145.822/145.860
HUMSAT D 29 Apr 22:03:57 22:08:01 48° 70° (ENE) 22:12:04 437.325/437.525
ZACube-1 29 Apr 22:04:44 22:09:11 51° 261° (W) 22:13:35 437.345
HO-68 29 Apr 22:12:53 22:17:38 19° 273° (W) 22:22:24 435.675
BEESAT 2 29 Apr 22:13:20 22:16:44 26° 325° (NW) 22:20:09 435.950
BEESAT 3 29 Apr 22:13:45 22:16:43 20° 329° (NNW) 22:19:42 437.485
VELOX 1 29 Apr 22:14:43 22:16:58 14° 56° (NE) 22:19:14 145.980
PRISM 29 Apr 22:16:03 22:20:02 45° 291° (WNW) 22:24:01 437.425
STRAND 1 29 Apr 22:19:29 22:22:55 18° 304° (NW) 22:26:20 437.568
50 SAT 29 Apr 22:20:24 22:22:01 13° 59° (ENE) 22:23:39 437.505
ANTELSAT 29 Apr 22:21:22 22:23:15 12° 87° (E) 22:25:08 437.575/2403.000
DX 1 29 Apr 22:23:56 22:26:26 15° 57° (ENE) 22:28:56 434.975-435.025
PCSat 29 Apr 22:26:52 22:29:31 13° 12° (NNE) 22:32:09 145.827
UKube-1 29 Apr 22:36:52 22:39:34 16° 58° (ENE) 22:42:17 .
AISAT 29 Apr 22:44:35 22:48:13 25° 63° (ENE) 22:51:53 437.250
ESTCUBE 1 29 Apr 22:48:05 22:52:05 33° 66° (ENE) 22:56:06 437.505/2401.250
RS-15 29 Apr 22:53:22 23:04:25 62° 118° (ESE) 23:16:06 29.354- 29.394
Oscar 11 29 Apr 22:56:35 22:59:08 15° 271° (W) 23:01:40 145.826/435.025
FUNcube-1 29 Apr 23:02:33 23:05:30 17° 271° (W) 23:08:25 145.935
UWE-3 29 Apr 23:05:33 23:07:13 12° 274° (W) 23:08:52 435.000/436.395/437.385
SPROUT 29 Apr 23:13:05 23:16:04 19° 60° (ENE) 23:19:04 437.525
UNISAT 6 29 Apr 23:13:56 23:18:06 40° 97° (E) 23:22:08 437.425
AIST 2 29 Apr 23:14:38 23:18:42 54° 314° (NW) 23:22:48 435.215
AO-85 29 Apr 23:14:59 23:19:28 37° 242° (WSW) 23:23:33 145.980
DELFI C3 29 Apr 23:15:29 23:17:56 16° 270° (W) 23:20:24 145.870
GONETS M04 29 Apr 23:23:56 23:28:11 15° 69° (ENE) 23:32:26
Cosmos 2504 29 Apr 23:25:40 23:31:16 23° 300° (WNW) 23:36:51 435.465 / 435.565
CUBEBUG 1 29 Apr 23:30:42 23:35:00 59° 71° (ENE) 23:39:21 437.445
TIGRISAT 29 Apr 23:32:39 23:37:00 58° 100° (E) 23:41:13 435.000
YUBILEINY 29 Apr 23:35:43 23:36:54 10° 323° (NW) 23:38:06 435.215
HUMSAT D 29 Apr 23:40:47 23:43:54 20° 268° (W) 23:47:01 437.325/437.525
NANOSAT C BR1 29 Apr 23:44:54 23:47:52 18° 91° (E) 23:50:47 145.865
VELOX 1 29 Apr 23:48:21 23:52:47 89° 93° (E) 23:57:17 145.980
50 SAT 29 Apr 23:51:42 23:55:21 69° 258° (WSW) 23:59:01 437.505
BEESAT 2 29 Apr 23:55:06 23:55:56 11° 347° (NNW) 23:56:46 435.950
ANTELSAT 29 Apr 23:56:12 00:00:37 80° 285° (WNW) 00:04:55 437.575/2403.000
DX 1 29 Apr 23:57:41 00:02:03 80° 256° (WSW) 00:06:28 434.975-435.025
TISAT 1 30 Apr 00:00:25 00:03:22 18° 60° (ENE) 00:06:19 437.305
BUGSAT 1 30 Apr 00:01:10 00:03:09 13° 88° (E) 00:05:07 437.445
PCSat 30 Apr 00:10:03 00:14:47 29° 37° (NE) 00:19:28 145.827
UKube-1 30 Apr 00:10:48 00:15:08 71° 257° (WSW) 00:19:28 .
AISAT 30 Apr 00:20:16 00:24:30 43° 261° (W) 00:28:48 437.250
ESTCUBE 1 30 Apr 00:24:52 00:28:53 32° 264° (W) 00:32:57 437.505/2401.250
QB50P2 30 Apr 00:33:33 00:37:46 58° 101° (E) 00:41:57 145.880/145.840
BEESAT 30 Apr 00:33:39 00:35:02 11° 52° (NE) 00:36:26 436.000
POLYITAN 1 30 Apr 00:35:40 00:39:53 59° 101° (E) 00:44:03 437.675
JAS-2 30 Apr 00:36:34 00:41:29 18° 83° (E) 00:46:27 435.910
DUCHIFAT 1 30 Apr 00:38:12 00:42:23 56° 101° (E) 00:46:31 145.980
POPSAT HIP 1 30 Apr 00:39:14 00:43:29 63° 101° (ESE) 00:47:41 437.405
QB50P1 30 Apr 00:42:48 00:47:04 69° 101° (ESE) 00:51:17 145.935-145.965
SPROUT 30 Apr 00:47:21 00:51:37 60° 258° (WSW) 00:55:56 437.525
O/OREOS (USA 219) 30 Apr 00:47:53 00:52:12 40° 55° (NE) 00:56:28 437.305
UNISAT 6 30 Apr 00:51:00 00:54:39 26° 297° (WNW) 00:58:14 437.425
AIST 2 30 Apr 00:55:32 00:58:05 16° 336° (NNW) 01:00:38 435.215
RS-15 30 Apr 01:05:53 01:17:14 58° 325° (NW) 01:29:13 29.354- 29.394
CUBEBUG 1 30 Apr 01:08:44 01:11:41 18° 270° (W) 01:14:40 437.445
TIGRISAT 30 Apr 01:10:11 01:13:18 19° 300° (WNW) 01:16:21 435.000
GONETS M04 30 Apr 01:14:27 01:23:07 63° 92° (E) 01:31:48
NANOSAT C BR1 30 Apr 01:19:46 01:23:56 53° 289° (WNW) 01:28:02 145.865
ITUPSAT 1 30 Apr 01:23:11 01:27:09 27° 62° (ENE) 01:31:08 437.325
AIST 1 30 Apr 01:24:35 01:28:53 73° 97° (E) 01:33:14
VELOX 1 30 Apr 01:28:22 01:29:57 12° 274° (W) 01:31:32 145.980
CUSAT 1 30 Apr 01:29:05 01:34:41 28° 65° (ENE) 01:41:06 437.405
BEESAT 3 30 Apr 01:34:00 01:35:26 12° 17° (NNE) 01:36:52 437.485
SWISSCUBE 30 Apr 01:34:04 01:38:23 36° 65° (ENE) 01:42:44 437.505
TISAT 1 30 Apr 01:34:26 01:38:38 59° 259° (WSW) 01:42:53 437.305
BUGSAT 1 30 Apr 01:34:49 01:39:05 75° 286° (WNW) 01:43:15 437.445
ANTELSAT 30 Apr 01:34:54 01:36:35 12° 305° (NW) 01:38:15 437.575/2403.000
BEESAT 2 30 Apr 01:34:55 01:35:37 10° 12° (NNE) 01:36:19 435.950
DANDE 30 Apr 01:40:59 01:44:48 17° 61° (ENE) 01:49:10 436.750
Cosmos 2499 30 Apr 01:46:35 01:53:22 52° 91° (E) 02:00:11 435.465 / 435.565
Oscar 19 30 Apr 01:53:08 01:57:35 28° 93° (E) 02:01:59 437.125/150
PCSat 30 Apr 01:53:15 01:58:41 72° 238° (WSW) 02:04:05 145.827
BEESAT 30 Apr 02:07:13 02:11:56 63° 71° (ENE) 02:16:39 436.000
QB50P2 30 Apr 02:10:15 02:13:12 18° 300° (WNW) 02:16:07 145.880/145.840
POLYITAN 1 30 Apr 02:12:23 02:15:18 18° 300° (WNW) 02:18:11 437.675
DUCHIFAT 1 30 Apr 02:14:44 02:17:43 19° 300° (WNW) 02:20:40 145.980
POPSAT HIP 1 30 Apr 02:16:01 02:18:50 17° 300° (WNW) 02:21:39 437.405
QB50P1 30 Apr 02:19:45 02:22:22 16° 301° (WNW) 02:24:59 145.935-145.965
JAS-2 30 Apr 02:20:00 02:27:39 73° 103° (ESE) 02:35:32 435.910
O/OREOS (USA 219) 30 Apr 02:27:35 02:31:28 28° 255° (WSW) 02:35:19 437.305
Gurwin Techsat 1B 30 Apr 02:59:10 03:04:15 43° 98° (E) 03:09:18 435.225
ITUPSAT 1 30 Apr 03:00:14 03:04:48 45° 261° (W) 03:09:24 437.325
ITAMSAT 1 30 Apr 03:04:25 03:08:26 22° 92° (E) 03:12:25 435.822/435.867
AIST 1 30 Apr 03:04:38 03:07:03 15° 297° (WNW) 03:09:30
MOZHAYETS 4 30 Apr 03:09:17 03:13:02 26° 63° (ENE) 03:16:47
CUSAT 1 30 Apr 03:10:39 03:17:16 75° 261° (W) 03:25:07 437.405
BEESAT 3 30 Apr 03:10:40 03:14:18 33° 39° (NE) 03:17:55 437.485
BEESAT 2 30 Apr 03:11:28 03:14:50 25° 35° (NE) 03:18:10 435.950
SWISSCUBE 30 Apr 03:11:56 03:16:13 33° 264° (W) 03:20:30 437.505
GONETS M04 30 Apr 03:12:28 03:20:30 37° 295° (WNW) 03:28:34
BUGSAT 1 30 Apr 03:12:32 03:13:42 11° 305° (NW) 03:14:51 437.445
RS-15 30 Apr 03:21:51 03:32:46 39° 358° (N) 03:44:04 29.354- 29.394
DANDE 30 Apr 03:22:25 03:28:14 78° 77° (ENE) 03:35:46 436.750
KKS-1 30 Apr 03:29:52 03:34:17 59° 70° (ENE) 03:38:43 437.445
Oscar 19 30 Apr 03:32:08 03:37:09 49° 292° (WNW) 03:42:08 437.125/150
PCSat 30 Apr 03:38:54 03:41:08 13° 258° (WSW) 03:43:21 145.827
Cosmos 2499 30 Apr 03:40:23 03:46:46 35° 293° (WNW) 03:53:13 435.465 / 435.565
YUBILEINY 30 Apr 03:42:52 03:43:23 10° 37° (NE) 03:43:53 435.215
BEESAT 30 Apr 03:46:51 03:50:10 19° 270° (W) 03:53:29 436.000
AO-7 30 Apr 03:54:46 04:01:39 28° 92° (E) 04:08:30 29.400- 29.500
STARS 30 Apr 03:55:42 04:00:04 58° 70° (ENE) 04:04:27 437.465
JAS-2 30 Apr 04:05:38 04:12:08 33° 302° (WNW) 04:18:53 435.910
AIST 2 30 Apr 04:15:49 04:18:30 16° 25° (NNE) 04:21:10 435.215
Gurwin Techsat 1B 30 Apr 04:39:23 04:44:06 33° 297° (WNW) 04:48:47 435.225
ITAMSAT 1 30 Apr 04:43:11 04:48:18 60° 291° (WNW) 04:53:24 435.822/435.867
CUBESAT XI-V 30 Apr 04:45:03 04:48:57 28° 64° (ENE) 04:52:53 437.345
HORYU 2 30 Apr 04:45:20 04:47:43 14° 89° (E) 04:50:06 437.375
MOZHAYETS 4 30 Apr 04:45:38 04:50:00 44° 261° (W) 04:54:24
BEESAT 3 30 Apr 04:48:23 04:52:03 37° 240° (WSW) 04:55:41 437.485
BEESAT 2 30 Apr 04:49:03 04:52:59 58° 235° (SW) 04:56:53 435.950
CUSAT 1 30 Apr 04:54:26 04:58:41 18° 278° (W) 05:03:18 437.405
DANDE 30 Apr 05:06:11 05:10:49 23° 271° (W) 05:16:15 436.750
KKS-1 30 Apr 05:08:08 05:11:14 18° 269° (W) 05:14:22 437.445
GONETS M04 30 Apr 05:20:25 05:20:48 10° 324° (NW) 05:21:12
STARS 30 Apr 05:33:43 05:36:48 18° 269° (W) 05:39:53 437.465
YUBILEINY 30 Apr 05:35:34 05:43:33 38° 65° (ENE) 05:51:29 435.215
RS-15 30 Apr 05:36:44 05:48:34 53° 31° (NNE) 06:00:36 29.354- 29.394
AO-7 30 Apr 05:46:56 05:55:17 80° 293° (WNW) 06:03:37 29.400- 29.500
AIST 2 30 Apr 05:53:41 05:57:49 60° 47° (NE) 06:01:55 435.215
HORYU 2 30 Apr 06:20:23 06:24:50 74° 287° (WNW) 06:29:13 437.375
STRAND 1 30 Apr 06:21:19 06:25:41 29° 62° (ENE) 06:30:03 437.568
CUBESAT XI-V 30 Apr 06:21:52 06:26:12 40° 263° (W) 06:30:35 437.345
Cosmos 2491 30 Apr 06:24:25 06:31:39 30° 80° (E) 06:38:54 435.465 / 435.565
ITAMSAT 1 30 Apr 06:24:56 06:26:47 12° 310° (NW) 06:28:38 435.822/435.867
LilacSat-2 30 Apr 06:27:00 06:28:59 14° 89° (E) 06:30:58 437.200
Cubesat XI-IV 30 Apr 06:31:39 06:35:39 21° 91° (E) 06:39:38 437.490
NOAA 15 30 Apr 06:40:55 06:45:49 36° 96° (E) 06:50:41 137.62
GOMX 1 30 Apr 06:45:30 06:49:00 17° 86° (E) 06:52:25 467.674
BRITE-PL 30 Apr 06:54:06 06:59:20 36° 94° (E) 07:04:33 437.365/2234.400
DOVE 4 30 Apr 06:59:39 07:00:46 11° 82° (E) 07:01:52 437.250
NOAA 18 30 Apr 07:13:13 07:18:37 56° 102° (ESE) 07:23:58 137.9125
Cosmos 2504 30 Apr 07:15:52 07:22:44 39° 68° (ENE) 07:29:58 435.465 / 435.565
CUTE-I 30 Apr 07:27:28 07:32:45 59° 102° (ESE) 07:37:59 437.470
M-CUBED/EXP-1 PRIME 30 Apr 07:29:24 07:32:15 18° 95° (E) 07:34:57 437.505
YUBILEINY 30 Apr 07:32:21 07:40:51 61° 268° (W) 07:49:19 435.215
AIST 2 30 Apr 07:32:54 07:35:56 20° 246° (WSW) 07:38:58 435.215
PRISM 30 Apr 07:34:52 07:38:19 27° 64° (ENE) 07:41:48 437.425
AO-7 30 Apr 07:40:36 07:46:57 25° 316° (NW) 07:53:19 29.400- 29.500
HO-68 30 Apr 07:46:26 07:50:14 15° 84° (E) 07:54:03 435.675
RS-15 30 Apr 07:49:46 08:01:55 73° 238° (WSW) 08:14:08 29.354- 29.394
AUBIESAT-1 30 Apr 07:50:34 07:53:53 24° 98° (E) 07:57:00 437.475
HORYU 2 30 Apr 07:59:06 08:00:37 12° 306° (NW) 08:02:07 437.375
STRAND 1 30 Apr 07:59:47 08:04:41 46° 261° (W) 08:09:37 437.568
LilacSat-2 30 Apr 07:59:55 08:03:42 59° 287° (WNW) 08:07:26 437.200
CINEMA 3 30 Apr 08:05:10 08:07:31 14° 85° (E) 08:09:49 145.822/145.860
Cubesat XI-IV 30 Apr 08:10:55 08:16:12 65° 289° (WNW) 08:21:27 437.490
SO-50 30 Apr 08:11:39 08:16:03 33° 118° (ESE) 08:20:27 436.795
Cosmos 2491 30 Apr 08:18:53 08:27:43 74° 282° (WNW) 08:36:37 435.465 / 435.565
NOAA 15 30 Apr 08:20:43 08:25:38 39° 295° (WNW) 08:30:33 137.62
ISS 30 Apr 08:21:09 08:21:26 10° 135° (SE) 08:21:44 145.825
GOMX 1 30 Apr 08:22:13 08:27:46 85° 287° (WNW) 08:33:09 467.674
SEEDS 30 Apr 08:26:32 08:28:47 14° 88° (E) 08:31:01 437.485
BRITE-PL 30 Apr 08:32:32 08:37:51 43° 293° (WNW) 08:43:11 437.365/2234.400
DOVE 4 30 Apr 08:34:13 08:39:29 69° 101° (ESE) 08:44:30 437.250
COMPASS 1 30 Apr 08:35:59 08:37:54 13° 88° (E) 08:39:48 437.405
UNISAT 6 30 Apr 08:44:29 08:45:08 10° 53° (NE) 08:45:48 437.425
NOAA 18 30 Apr 08:54:26 08:58:58 27° 301° (WNW) 09:03:30 137.9125
CANX-2 30 Apr 08:54:35 08:58:33 39° 97° (E) 09:02:30 2200.000
